Index of /20260426/WXO-DD/model_rdps/10km/00/056
Name Last modified Size Description
Parent Directory -
20260426T00Z_MSC_RDPS_AbsoluteVorticity_IsbL-0250_RLatLon0.09_PT056H.grib2 2026-04-26 02:56 621K
20260426T00Z_MSC_RDPS_AbsoluteVorticity_IsbL-0500_RLatLon0.09_PT056H.grib2 2026-04-26 02:56 568K
20260426T00Z_MSC_RDPS_AbsoluteVorticity_IsbL-0700_RLatLon0.09_PT056H.grib2 2026-04-26 02:56 615K
20260426T00Z_MSC_RDPS_AbsoluteVorticity_IsbL-0850_RLatLon0.09_PT056H.grib2 2026-04-26 02:56 775K
20260426T00Z_MSC_RDPS_AirTemp_AGL-120m_RLatLon0.09_PT056H.grib2 2026-04-26 02:56 378K
20260426T00Z_MSC_RDPS_AirTemp_AGL-2m_RLatLon0.09_PT056H.grib2 2026-04-26 02:56 638K
20260426T00Z_MSC_RDPS_AirTemp_AGL-40m_RLatLon0.09_PT056H.grib2 2026-04-26 02:56 395K
20260426T00Z_MSC_RDPS_AirTemp_AGL-80m_RLatLon0.09_PT056H.grib2 2026-04-26 02:56 385K
20260426T00Z_MSC_RDPS_AirTemp_IsbL-0001_RLatLon0.09_PT056H.grib2 2026-04-26 02:56 254K
20260426T00Z_MSC_RDPS_AirTemp_IsbL-0005_RLatLon0.09_PT056H.grib2 2026-04-26 02:56 297K
20260426T00Z_MSC_RDPS_AirTemp_IsbL-0010_RLatLon0.09_PT056H.grib2 2026-04-26 02:56 309K
20260426T00Z_MSC_RDPS_AirTemp_IsbL-0020_RLatLon0.09_PT056H.grib2 2026-04-26 02:56 325K
20260426T00Z_MSC_RDPS_AirTemp_IsbL-0030_RLatLon0.09_PT056H.grib2 2026-04-26 02:56 341K
20260426T00Z_MSC_RDPS_AirTemp_IsbL-0050_RLatLon0.09_PT056H.grib2 2026-04-26 02:56 320K
20260426T00Z_MSC_RDPS_AirTemp_IsbL-0100_RLatLon0.09_PT056H.grib2 2026-04-26 02:56 432K
20260426T00Z_MSC_RDPS_AirTemp_IsbL-0150_RLatLon0.09_PT056H.grib2 2026-04-26 02:56 433K
20260426T00Z_MSC_RDPS_AirTemp_IsbL-0175_RLatLon0.09_PT056H.grib2 2026-04-26 02:56 422K
20260426T00Z_MSC_RDPS_AirTemp_IsbL-0200_RLatLon0.09_PT056H.grib2 2026-04-26 02:56 423K
20260426T00Z_MSC_RDPS_AirTemp_IsbL-0225_RLatLon0.09_PT056H.grib2 2026-04-26 02:56 422K
20260426T00Z_MSC_RDPS_AirTemp_IsbL-0250_RLatLon0.09_PT056H.grib2 2026-04-26 02:56 429K
20260426T00Z_MSC_RDPS_AirTemp_IsbL-0275_RLatLon0.09_PT056H.grib2 2026-04-26 02:56 411K
20260426T00Z_MSC_RDPS_AirTemp_IsbL-0300_RLatLon0.09_PT056H.grib2 2026-04-26 02:56 418K
20260426T00Z_MSC_RDPS_AirTemp_IsbL-0350_RLatLon0.09_PT056H.grib2 2026-04-26 02:56 428K
20260426T00Z_MSC_RDPS_AirTemp_IsbL-0400_RLatLon0.09_PT056H.grib2 2026-04-26 02:56 428K
20260426T00Z_MSC_RDPS_AirTemp_IsbL-0450_RLatLon0.09_PT056H.grib2 2026-04-26 02:56 433K
20260426T00Z_MSC_RDPS_AirTemp_IsbL-0500_RLatLon0.09_PT056H.grib2 2026-04-26 02:56 409K
20260426T00Z_MSC_RDPS_AirTemp_IsbL-0550_RLatLon0.09_PT056H.grib2 2026-04-26 02:56 425K
20260426T00Z_MSC_RDPS_AirTemp_IsbL-0600_RLatLon0.09_PT056H.grib2 2026-04-26 02:56 441K
20260426T00Z_MSC_RDPS_AirTemp_IsbL-0650_RLatLon0.09_PT056H.grib2 2026-04-26 02:56 456K
20260426T00Z_MSC_RDPS_AirTemp_IsbL-0700_RLatLon0.09_PT056H.grib2 2026-04-26 02:56 480K
20260426T00Z_MSC_RDPS_AirTemp_IsbL-0750_RLatLon0.09_PT056H.grib2 2026-04-26 02:56 406K
20260426T00Z_MSC_RDPS_AirTemp_IsbL-0800_RLatLon0.09_PT056H.grib2 2026-04-26 02:56 454K
20260426T00Z_MSC_RDPS_AirTemp_IsbL-0850_RLatLon0.09_PT056H.grib2 2026-04-26 02:56 504K
20260426T00Z_MSC_RDPS_AirTemp_IsbL-0875_RLatLon0.09_PT056H.grib2 2026-04-26 02:56 521K
20260426T00Z_MSC_RDPS_AirTemp_IsbL-0900_RLatLon0.09_PT056H.grib2 2026-04-26 02:56 525K
20260426T00Z_MSC_RDPS_AirTemp_IsbL-0925_RLatLon0.09_PT056H.grib2 2026-04-26 02:56 524K
20260426T00Z_MSC_RDPS_AirTemp_IsbL-0950_RLatLon0.09_PT056H.grib2 2026-04-26 02:56 525K
20260426T00Z_MSC_RDPS_AirTemp_IsbL-0970_RLatLon0.09_PT056H.grib2 2026-04-26 02:56 530K
20260426T00Z_MSC_RDPS_AirTemp_IsbL-0985_RLatLon0.09_PT056H.grib2 2026-04-26 02:56 509K
20260426T00Z_MSC_RDPS_AirTemp_IsbL-1000_RLatLon0.09_PT056H.grib2 2026-04-26 02:56 494K
20260426T00Z_MSC_RDPS_AirTemp_IsbL-1015_RLatLon0.09_PT056H.grib2 2026-04-26 02:56 493K
20260426T00Z_MSC_RDPS_Albedo_Sfc_RLatLon0.09_PT056H.grib2 2026-04-26 02:56 164K
20260426T00Z_MSC_RDPS_CAPE_Sfc_RLatLon0.09_PT056H.grib2 2026-04-26 02:56 1.6M
20260426T00Z_MSC_RDPS_CIN_Sfc_RLatLon0.09_PT056H.grib2 2026-04-26 02:56 1.1M
20260426T00Z_MSC_RDPS_CloudWater_EAtm_RLatLon0.09_PT056H.grib2 2026-04-26 02:56 218K
20260426T00Z_MSC_RDPS_ConvectivePrecip-Accum_Sfc_RLatLon0.09_PT056H.grib2 2026-04-26 02:56 1.2M
20260426T00Z_MSC_RDPS_DewPointDepression_AGL-2m_RLatLon0.09_PT056H.grib2 2026-04-26 02:56 391K
20260426T00Z_MSC_RDPS_DewPointDepression_IsbL-0001_RLatLon0.09_PT056H.grib2 2026-04-26 02:56 193
20260426T00Z_MSC_RDPS_DewPointDepression_IsbL-0005_RLatLon0.09_PT056H.grib2 2026-04-26 02:56 193
20260426T00Z_MSC_RDPS_DewPointDepression_IsbL-0010_RLatLon0.09_PT056H.grib2 2026-04-26 02:56 193
20260426T00Z_MSC_RDPS_DewPointDepression_IsbL-0020_RLatLon0.09_PT056H.grib2 2026-04-26 02:56 193
20260426T00Z_MSC_RDPS_DewPointDepression_IsbL-0030_RLatLon0.09_PT056H.grib2 2026-04-26 02:56 193
20260426T00Z_MSC_RDPS_DewPointDepression_IsbL-0050_RLatLon0.09_PT056H.grib2 2026-04-26 02:56 88K
20260426T00Z_MSC_RDPS_DewPointDepression_IsbL-0100_RLatLon0.09_PT056H.grib2 2026-04-26 02:56 129K
20260426T00Z_MSC_RDPS_DewPointDepression_IsbL-0150_RLatLon0.09_PT056H.grib2 2026-04-26 02:56 153K
20260426T00Z_MSC_RDPS_DewPointDepression_IsbL-0175_RLatLon0.09_PT056H.grib2 2026-04-26 02:56 183K
20260426T00Z_MSC_RDPS_DewPointDepression_IsbL-0200_RLatLon0.09_PT056H.grib2 2026-04-26 02:56 222K
20260426T00Z_MSC_RDPS_DewPointDepression_IsbL-0225_RLatLon0.09_PT056H.grib2 2026-04-26 02:56 262K
20260426T00Z_MSC_RDPS_DewPointDepression_IsbL-0250_RLatLon0.09_PT056H.grib2 2026-04-26 02:56 299K
20260426T00Z_MSC_RDPS_DewPointDepression_IsbL-0275_RLatLon0.09_PT056H.grib2 2026-04-26 02:56 307K
20260426T00Z_MSC_RDPS_DewPointDepression_IsbL-0300_RLatLon0.09_PT056H.grib2 2026-04-26 02:56 323K
20260426T00Z_MSC_RDPS_DewPointDepression_IsbL-0350_RLatLon0.09_PT056H.grib2 2026-04-26 02:56 327K
20260426T00Z_MSC_RDPS_DewPointDepression_IsbL-0400_RLatLon0.09_PT056H.grib2 2026-04-26 02:56 342K
20260426T00Z_MSC_RDPS_DewPointDepression_IsbL-0450_RLatLon0.09_PT056H.grib2 2026-04-26 02:56 351K
20260426T00Z_MSC_RDPS_DewPointDepression_IsbL-0500_RLatLon0.09_PT056H.grib2 2026-04-26 02:56 357K
20260426T00Z_MSC_RDPS_DewPointDepression_IsbL-0550_RLatLon0.09_PT056H.grib2 2026-04-26 02:56 367K
20260426T00Z_MSC_RDPS_DewPointDepression_IsbL-0600_RLatLon0.09_PT056H.grib2 2026-04-26 02:56 376K
20260426T00Z_MSC_RDPS_DewPointDepression_IsbL-0650_RLatLon0.09_PT056H.grib2 2026-04-26 02:56 385K
20260426T00Z_MSC_RDPS_DewPointDepression_IsbL-0700_RLatLon0.09_PT056H.grib2 2026-04-26 02:56 397K
20260426T00Z_MSC_RDPS_DewPointDepression_IsbL-0750_RLatLon0.09_PT056H.grib2 2026-04-26 02:56 418K
20260426T00Z_MSC_RDPS_DewPointDepression_IsbL-0800_RLatLon0.09_PT056H.grib2 2026-04-26 02:56 447K
20260426T00Z_MSC_RDPS_DewPointDepression_IsbL-0850_RLatLon0.09_PT056H.grib2 2026-04-26 02:56 474K
20260426T00Z_MSC_RDPS_DewPointDepression_IsbL-0875_RLatLon0.09_PT056H.grib2 2026-04-26 02:56 477K
20260426T00Z_MSC_RDPS_DewPointDepression_IsbL-0900_RLatLon0.09_PT056H.grib2 2026-04-26 02:56 465K
20260426T00Z_MSC_RDPS_DewPointDepression_IsbL-0925_RLatLon0.09_PT056H.grib2 2026-04-26 02:56 454K
20260426T00Z_MSC_RDPS_DewPointDepression_IsbL-0950_RLatLon0.09_PT056H.grib2 2026-04-26 02:56 443K
20260426T00Z_MSC_RDPS_DewPointDepression_IsbL-0970_RLatLon0.09_PT056H.grib2 2026-04-26 02:56 433K
20260426T00Z_MSC_RDPS_DewPointDepression_IsbL-0985_RLatLon0.09_PT056H.grib2 2026-04-26 02:56 428K
20260426T00Z_MSC_RDPS_DewPointDepression_IsbL-1000_RLatLon0.09_PT056H.grib2 2026-04-26 02:56 425K
20260426T00Z_MSC_RDPS_DewPointDepression_IsbL-1015_RLatLon0.09_PT056H.grib2 2026-04-26 02:56 418K
20260426T00Z_MSC_RDPS_DewPoint_AGL-2m_RLatLon0.09_PT056H.grib2 2026-04-26 02:56 311K
20260426T00Z_MSC_RDPS_DownwardLongwaveRadiationFlux-Accum_Sfc_RLatLon0.09_PT056H.grib2 2026-04-26 02:56 393K
20260426T00Z_MSC_RDPS_DownwardShortwaveRadiationFlux-Accum_NTAtm_RLatLon0.09_PT056H.grib2 2026-04-26 02:56 98K
20260426T00Z_MSC_RDPS_DownwardShortwaveRadiationFlux-Accum_Sfc_RLatLon0.09_PT056H.grib2 2026-04-26 02:56 577K
20260426T00Z_MSC_RDPS_FreezingRain-Accum1h_Sfc_RLatLon0.09_PT056H.grib2 2026-04-26 02:56 53K
20260426T00Z_MSC_RDPS_FreezingRain-Accum_Sfc_RLatLon0.09_PT056H.grib2 2026-04-26 02:56 149K
20260426T00Z_MSC_RDPS_GeopotentialHeight_IsbL-0001_RLatLon0.09_PT056H.grib2 2026-04-26 02:56 239K
20260426T00Z_MSC_RDPS_GeopotentialHeight_IsbL-0005_RLatLon0.09_PT056H.grib2 2026-04-26 02:56 341K
20260426T00Z_MSC_RDPS_GeopotentialHeight_IsbL-0010_RLatLon0.09_PT056H.grib2 2026-04-26 02:56 310K
20260426T00Z_MSC_RDPS_GeopotentialHeight_IsbL-0020_RLatLon0.09_PT056H.grib2 2026-04-26 02:56 309K
20260426T00Z_MSC_RDPS_GeopotentialHeight_IsbL-0030_RLatLon0.09_PT056H.grib2 2026-04-26 02:56 310K
20260426T00Z_MSC_RDPS_GeopotentialHeight_IsbL-0050_RLatLon0.09_PT056H.grib2 2026-04-26 02:56 344K
20260426T00Z_MSC_RDPS_GeopotentialHeight_IsbL-0100_RLatLon0.09_PT056H.grib2 2026-04-26 02:56 290K
20260426T00Z_MSC_RDPS_GeopotentialHeight_IsbL-0150_RLatLon0.09_PT056H.grib2 2026-04-26 02:56 232K
20260426T00Z_MSC_RDPS_GeopotentialHeight_IsbL-0175_RLatLon0.09_PT056H.grib2 2026-04-26 02:56 236K
20260426T00Z_MSC_RDPS_GeopotentialHeight_IsbL-0200_RLatLon0.09_PT056H.grib2 2026-04-26 02:56 269K
20260426T00Z_MSC_RDPS_GeopotentialHeight_IsbL-0225_RLatLon0.09_PT056H.grib2 2026-04-26 02:56 268K
20260426T00Z_MSC_RDPS_GeopotentialHeight_IsbL-0250_RLatLon0.09_PT056H.grib2 2026-04-26 02:56 269K
20260426T00Z_MSC_RDPS_GeopotentialHeight_IsbL-0275_RLatLon0.09_PT056H.grib2 2026-04-26 02:56 268K
20260426T00Z_MSC_RDPS_GeopotentialHeight_IsbL-0300_RLatLon0.09_PT056H.grib2 2026-04-26 02:56 268K
20260426T00Z_MSC_RDPS_GeopotentialHeight_IsbL-0350_RLatLon0.09_PT056H.grib2 2026-04-26 02:56 234K
20260426T00Z_MSC_RDPS_GeopotentialHeight_IsbL-0400_RLatLon0.09_PT056H.grib2 2026-04-26 02:56 230K
20260426T00Z_MSC_RDPS_GeopotentialHeight_IsbL-0450_RLatLon0.09_PT056H.grib2 2026-04-26 02:56 298K
20260426T00Z_MSC_RDPS_GeopotentialHeight_IsbL-0500_RLatLon0.09_PT056H.grib2 2026-04-26 02:56 293K
20260426T00Z_MSC_RDPS_GeopotentialHeight_IsbL-0550_RLatLon0.09_PT056H.grib2 2026-04-26 02:56 289K
20260426T00Z_MSC_RDPS_GeopotentialHeight_IsbL-0600_RLatLon0.09_PT056H.grib2 2026-04-26 02:56 285K
20260426T00Z_MSC_RDPS_GeopotentialHeight_IsbL-0650_RLatLon0.09_PT056H.grib2 2026-04-26 02:56 283K
20260426T00Z_MSC_RDPS_GeopotentialHeight_IsbL-0700_RLatLon0.09_PT056H.grib2 2026-04-26 02:56 254K
20260426T00Z_MSC_RDPS_GeopotentialHeight_IsbL-0750_RLatLon0.09_PT056H.grib2 2026-04-26 02:56 255K
20260426T00Z_MSC_RDPS_GeopotentialHeight_IsbL-0800_RLatLon0.09_PT056H.grib2 2026-04-26 02:56 345K
20260426T00Z_MSC_RDPS_GeopotentialHeight_IsbL-0850_RLatLon0.09_PT056H.grib2 2026-04-26 02:56 355K
20260426T00Z_MSC_RDPS_GeopotentialHeight_IsbL-0875_RLatLon0.09_PT056H.grib2 2026-04-26 02:56 357K
20260426T00Z_MSC_RDPS_GeopotentialHeight_IsbL-0900_RLatLon0.09_PT056H.grib2 2026-04-26 02:56 363K
20260426T00Z_MSC_RDPS_GeopotentialHeight_IsbL-0925_RLatLon0.09_PT056H.grib2 2026-04-26 02:56 365K
20260426T00Z_MSC_RDPS_GeopotentialHeight_IsbL-0950_RLatLon0.09_PT056H.grib2 2026-04-26 02:56 369K
20260426T00Z_MSC_RDPS_GeopotentialHeight_IsbL-0970_RLatLon0.09_PT056H.grib2 2026-04-26 02:56 375K
20260426T00Z_MSC_RDPS_GeopotentialHeight_IsbL-0985_RLatLon0.09_PT056H.grib2 2026-04-26 02:56 382K
20260426T00Z_MSC_RDPS_GeopotentialHeight_IsbL-1000_RLatLon0.09_PT056H.grib2 2026-04-26 02:56 394K
20260426T00Z_MSC_RDPS_GeopotentialHeight_IsbL-1015_RLatLon0.09_PT056H.grib2 2026-04-26 02:56 408K
20260426T00Z_MSC_RDPS_Humidex_Sfc_RLatLon0.09_PT056H.grib2 2026-04-26 02:56 2.4M
20260426T00Z_MSC_RDPS_IcePellets-Accum1h_Sfc_RLatLon0.09_PT056H.grib2 2026-04-26 02:56 10K
20260426T00Z_MSC_RDPS_IcePellets-Accum_Sfc_RLatLon0.09_PT056H.grib2 2026-04-26 02:56 39K
20260426T00Z_MSC_RDPS_KIndex_Sfc_RLatLon0.09_PT056H.grib2 2026-04-26 02:56 2.5M
20260426T00Z_MSC_RDPS_LatentHeatNetFlux_Sfc_RLatLon0.09_PT056H.grib2 2026-04-26 02:56 317K
20260426T00Z_MSC_RDPS_LiftedIndex-MU-VT_IsbL-0500_RLatLon0.09_PT056H.grib2 2026-04-26 02:56 2.4M
20260426T00Z_MSC_RDPS_NetLongwaveRadiationFlux-Accum_Sfc_RLatLon0.09_PT056H.grib2 2026-04-26 02:56 577K
20260426T00Z_MSC_RDPS_NetShortwaveRadiationFlux-Accum_Sfc_RLatLon0.09_PT056H.grib2 2026-04-26 02:56 579K
20260426T00Z_MSC_RDPS_PlanetaryBoundaryLayerHeight_Sfc_RLatLon0.09_PT056H.grib2 2026-04-26 02:56 1.1M
20260426T00Z_MSC_RDPS_Precip-Accum1h_Sfc_RLatLon0.09_PT056H.grib2 2026-04-26 02:56 1.3M
20260426T00Z_MSC_RDPS_Precip-Accum_Sfc_RLatLon0.09_PT056H.grib2 2026-04-26 02:56 2.1M
20260426T00Z_MSC_RDPS_PrecipRate_Sfc_RLatLon0.09_PT056H.grib2 2026-04-26 02:56 180K
20260426T00Z_MSC_RDPS_PrecipType-Instant_Sfc_RLatLon0.09_PT056H.grib2 2026-04-26 02:56 579K
20260426T00Z_MSC_RDPS_Pressure-Trend3h_Sfc_RLatLon0.09_PT056H.grib2 2026-04-26 02:56 1.2M
20260426T00Z_MSC_RDPS_Pressure_MSL_RLatLon0.09_PT056H.grib2 2026-04-26 02:56 293K
20260426T00Z_MSC_RDPS_Pressure_PVU-1.5_RLatLon0.09_PT056H.grib2 2026-04-26 02:56 2.5M
20260426T00Z_MSC_RDPS_Pressure_PVU-1_RLatLon0.09_PT056H.grib2 2026-04-26 02:56 2.4M
20260426T00Z_MSC_RDPS_Pressure_PVU-2_RLatLon0.09_PT056H.grib2 2026-04-26 02:56 2.4M
20260426T00Z_MSC_RDPS_Pressure_Sfc_RLatLon0.09_PT056H.grib2 2026-04-26 02:56 500K
20260426T00Z_MSC_RDPS_RadiativeTemp_Sfc_RLatLon0.09_PT056H.grib2 2026-04-26 02:56 304K
20260426T00Z_MSC_RDPS_Rain-Accum1h_Sfc_RLatLon0.09_PT056H.grib2 2026-04-26 02:56 608K
20260426T00Z_MSC_RDPS_Rain-Accum_Sfc_RLatLon0.09_PT056H.grib2 2026-04-26 02:56 1.6M
20260426T00Z_MSC_RDPS_RelativeHumidity_AGL-2m_RLatLon0.09_PT056H.grib2 2026-04-26 02:56 1.0M
20260426T00Z_MSC_RDPS_RelativeHumidity_IsbL-0010_RLatLon0.09_PT056H.grib2 2026-04-26 02:56 628K
20260426T00Z_MSC_RDPS_RelativeHumidity_IsbL-0020_RLatLon0.09_PT056H.grib2 2026-04-26 02:56 649K
20260426T00Z_MSC_RDPS_RelativeHumidity_IsbL-0030_RLatLon0.09_PT056H.grib2 2026-04-26 02:56 542K
20260426T00Z_MSC_RDPS_RelativeHumidity_IsbL-0050_RLatLon0.09_PT056H.grib2 2026-04-26 02:56 329K
20260426T00Z_MSC_RDPS_RelativeHumidity_IsbL-0100_RLatLon0.09_PT056H.grib2 2026-04-26 02:56 280K
20260426T00Z_MSC_RDPS_RelativeHumidity_IsbL-0150_RLatLon0.09_PT056H.grib2 2026-04-26 02:56 418K
20260426T00Z_MSC_RDPS_RelativeHumidity_IsbL-0175_RLatLon0.09_PT056H.grib2 2026-04-26 02:56 489K
20260426T00Z_MSC_RDPS_RelativeHumidity_IsbL-0200_RLatLon0.09_PT056H.grib2 2026-04-26 02:56 561K
20260426T00Z_MSC_RDPS_RelativeHumidity_IsbL-0225_RLatLon0.09_PT056H.grib2 2026-04-26 02:56 622K
20260426T00Z_MSC_RDPS_RelativeHumidity_IsbL-0250_RLatLon0.09_PT056H.grib2 2026-04-26 02:56 690K
20260426T00Z_MSC_RDPS_RelativeHumidity_IsbL-0275_RLatLon0.09_PT056H.grib2 2026-04-26 02:56 719K
20260426T00Z_MSC_RDPS_RelativeHumidity_IsbL-0300_RLatLon0.09_PT056H.grib2 2026-04-26 02:56 760K
20260426T00Z_MSC_RDPS_RelativeHumidity_IsbL-0350_RLatLon0.09_PT056H.grib2 2026-04-26 02:56 777K
20260426T00Z_MSC_RDPS_RelativeHumidity_IsbL-0400_RLatLon0.09_PT056H.grib2 2026-04-26 02:56 793K
20260426T00Z_MSC_RDPS_RelativeHumidity_IsbL-0450_RLatLon0.09_PT056H.grib2 2026-04-26 02:56 803K
20260426T00Z_MSC_RDPS_RelativeHumidity_IsbL-0500_RLatLon0.09_PT056H.grib2 2026-04-26 02:56 811K
20260426T00Z_MSC_RDPS_RelativeHumidity_IsbL-0550_RLatLon0.09_PT056H.grib2 2026-04-26 02:56 827K
20260426T00Z_MSC_RDPS_RelativeHumidity_IsbL-0600_RLatLon0.09_PT056H.grib2 2026-04-26 02:56 842K
20260426T00Z_MSC_RDPS_RelativeHumidity_IsbL-0650_RLatLon0.09_PT056H.grib2 2026-04-26 02:56 857K
20260426T00Z_MSC_RDPS_RelativeHumidity_IsbL-0700_RLatLon0.09_PT056H.grib2 2026-04-26 02:56 881K
20260426T00Z_MSC_RDPS_RelativeHumidity_IsbL-0750_RLatLon0.09_PT056H.grib2 2026-04-26 02:56 931K
20260426T00Z_MSC_RDPS_RelativeHumidity_IsbL-0800_RLatLon0.09_PT056H.grib2 2026-04-26 02:56 1.0M
20260426T00Z_MSC_RDPS_RelativeHumidity_IsbL-0850_RLatLon0.09_PT056H.grib2 2026-04-26 02:56 1.0M
20260426T00Z_MSC_RDPS_RelativeHumidity_IsbL-0875_RLatLon0.09_PT056H.grib2 2026-04-26 02:56 1.1M
20260426T00Z_MSC_RDPS_RelativeHumidity_IsbL-0900_RLatLon0.09_PT056H.grib2 2026-04-26 02:56 1.1M
20260426T00Z_MSC_RDPS_RelativeHumidity_IsbL-0925_RLatLon0.09_PT056H.grib2 2026-04-26 02:56 1.1M
20260426T00Z_MSC_RDPS_RelativeHumidity_IsbL-0950_RLatLon0.09_PT056H.grib2 2026-04-26 02:56 1.1M
20260426T00Z_MSC_RDPS_RelativeHumidity_IsbL-0970_RLatLon0.09_PT056H.grib2 2026-04-26 02:56 1.1M
20260426T00Z_MSC_RDPS_RelativeHumidity_IsbL-0985_RLatLon0.09_PT056H.grib2 2026-04-26 02:56 1.0M
20260426T00Z_MSC_RDPS_RelativeHumidity_IsbL-1000_RLatLon0.09_PT056H.grib2 2026-04-26 02:56 1.0M
20260426T00Z_MSC_RDPS_RelativeHumidity_IsbL-1015_RLatLon0.09_PT056H.grib2 2026-04-26 02:56 1.0M
20260426T00Z_MSC_RDPS_Runoff-Accum_Sfc_RLatLon0.09_PT056H.grib2 2026-04-26 02:56 73K
20260426T00Z_MSC_RDPS_SWEATIndex_Sfc_RLatLon0.09_PT056H.grib2 2026-04-26 02:56 2.4M
20260426T00Z_MSC_RDPS_SeeingIndex_EAtm_RLatLon0.09_PT056H.grib2 2026-04-26 02:56 1.0M
20260426T00Z_MSC_RDPS_SensibleHeatNetFlux_Sfc_RLatLon0.09_PT056H.grib2 2026-04-26 02:56 300K
20260426T00Z_MSC_RDPS_ShowalterIndex_IsbL-0500_RLatLon0.09_PT056H.grib2 2026-04-26 02:56 2.6M
20260426T00Z_MSC_RDPS_SkyTransparencyIndex_EAtm_RLatLon0.09_PT056H.grib2 2026-04-26 02:56 695K
20260426T00Z_MSC_RDPS_Snow-Accum1h_Sfc_RLatLon0.09_PT056H.grib2 2026-04-26 02:56 423K
20260426T00Z_MSC_RDPS_Snow-Accum_Sfc_RLatLon0.09_PT056H.grib2 2026-04-26 02:56 844K
20260426T00Z_MSC_RDPS_SnowDensity_Sfc_RLatLon0.09_PT056H.grib2 2026-04-26 02:56 185K
20260426T00Z_MSC_RDPS_SnowDepth_Sfc_RLatLon0.09_PT056H.grib2 2026-04-26 02:56 723K
20260426T00Z_MSC_RDPS_SoilTemp_DBS-0to10cm_RLatLon0.09_PT056H.grib2 2026-04-26 02:56 237K
20260426T00Z_MSC_RDPS_SoilTemp_Sfc_RLatLon0.09_PT056H.grib2 2026-04-26 02:56 266K
20260426T00Z_MSC_RDPS_SoilVolumetricIceContent_Sfc_RLatLon0.09_PT056H.grib2 2026-04-26 02:56 168K
20260426T00Z_MSC_RDPS_SoilVolumetricWaterContent_DBS-0to10cm_RLatLon0.09_PT056H.grib2 2026-04-26 02:56 261K
20260426T00Z_MSC_RDPS_SoilVolumetricWaterContent_DBS-0to1cm_RLatLon0.09_PT056H.grib2 2026-04-26 02:56 341K
20260426T00Z_MSC_RDPS_SpecificHumidity_AGL-120m_RLatLon0.09_PT056H.grib2 2026-04-26 02:56 485K
20260426T00Z_MSC_RDPS_SpecificHumidity_AGL-2m_RLatLon0.09_PT056H.grib2 2026-04-26 02:56 653K
20260426T00Z_MSC_RDPS_SpecificHumidity_AGL-40m_RLatLon0.09_PT056H.grib2 2026-04-26 02:56 490K
20260426T00Z_MSC_RDPS_SpecificHumidity_AGL-80m_RLatLon0.09_PT056H.grib2 2026-04-26 02:56 486K
20260426T00Z_MSC_RDPS_SpecificHumidity_IsbL-0001_RLatLon0.09_PT056H.grib2 2026-04-26 02:56 338K
20260426T00Z_MSC_RDPS_SpecificHumidity_IsbL-0005_RLatLon0.09_PT056H.grib2 2026-04-26 02:56 353K
20260426T00Z_MSC_RDPS_SpecificHumidity_IsbL-0010_RLatLon0.09_PT056H.grib2 2026-04-26 02:56 395K
20260426T00Z_MSC_RDPS_SpecificHumidity_IsbL-0020_RLatLon0.09_PT056H.grib2 2026-04-26 02:56 383K
20260426T00Z_MSC_RDPS_SpecificHumidity_IsbL-0030_RLatLon0.09_PT056H.grib2 2026-04-26 02:56 473K
20260426T00Z_MSC_RDPS_SpecificHumidity_IsbL-0050_RLatLon0.09_PT056H.grib2 2026-04-26 02:56 463K
20260426T00Z_MSC_RDPS_SpecificHumidity_IsbL-0100_RLatLon0.09_PT056H.grib2 2026-04-26 02:56 425K
20260426T00Z_MSC_RDPS_SpecificHumidity_IsbL-0150_RLatLon0.09_PT056H.grib2 2026-04-26 02:56 456K
20260426T00Z_MSC_RDPS_SpecificHumidity_IsbL-0175_RLatLon0.09_PT056H.grib2 2026-04-26 02:56 450K
20260426T00Z_MSC_RDPS_SpecificHumidity_IsbL-0200_RLatLon0.09_PT056H.grib2 2026-04-26 02:56 459K
20260426T00Z_MSC_RDPS_SpecificHumidity_IsbL-0225_RLatLon0.09_PT056H.grib2 2026-04-26 02:56 562K
20260426T00Z_MSC_RDPS_SpecificHumidity_IsbL-0250_RLatLon0.09_PT056H.grib2 2026-04-26 02:56 559K
20260426T00Z_MSC_RDPS_SpecificHumidity_IsbL-0275_RLatLon0.09_PT056H.grib2 2026-04-26 02:56 474K
20260426T00Z_MSC_RDPS_SpecificHumidity_IsbL-0300_RLatLon0.09_PT056H.grib2 2026-04-26 02:56 543K
20260426T00Z_MSC_RDPS_SpecificHumidity_IsbL-0350_RLatLon0.09_PT056H.grib2 2026-04-26 02:56 559K
20260426T00Z_MSC_RDPS_SpecificHumidity_IsbL-0400_RLatLon0.09_PT056H.grib2 2026-04-26 02:56 516K
20260426T00Z_MSC_RDPS_SpecificHumidity_IsbL-0450_RLatLon0.09_PT056H.grib2 2026-04-26 02:56 571K
20260426T00Z_MSC_RDPS_SpecificHumidity_IsbL-0500_RLatLon0.09_PT056H.grib2 2026-04-26 02:56 508K
20260426T00Z_MSC_RDPS_SpecificHumidity_IsbL-0550_RLatLon0.09_PT056H.grib2 2026-04-26 02:56 564K
20260426T00Z_MSC_RDPS_SpecificHumidity_IsbL-0600_RLatLon0.09_PT056H.grib2 2026-04-26 02:56 630K
20260426T00Z_MSC_RDPS_SpecificHumidity_IsbL-0650_RLatLon0.09_PT056H.grib2 2026-04-26 02:56 549K
20260426T00Z_MSC_RDPS_SpecificHumidity_IsbL-0700_RLatLon0.09_PT056H.grib2 2026-04-26 02:56 593K
20260426T00Z_MSC_RDPS_SpecificHumidity_IsbL-0750_RLatLon0.09_PT056H.grib2 2026-04-26 02:56 646K
20260426T00Z_MSC_RDPS_SpecificHumidity_IsbL-0800_RLatLon0.09_PT056H.grib2 2026-04-26 02:56 725K
20260426T00Z_MSC_RDPS_SpecificHumidity_IsbL-0850_RLatLon0.09_PT056H.grib2 2026-04-26 02:56 799K
20260426T00Z_MSC_RDPS_SpecificHumidity_IsbL-0875_RLatLon0.09_PT056H.grib2 2026-04-26 02:56 825K
20260426T00Z_MSC_RDPS_SpecificHumidity_IsbL-0900_RLatLon0.09_PT056H.grib2 2026-04-26 02:56 835K
20260426T00Z_MSC_RDPS_SpecificHumidity_IsbL-0925_RLatLon0.09_PT056H.grib2 2026-04-26 02:56 835K
20260426T00Z_MSC_RDPS_SpecificHumidity_IsbL-0950_RLatLon0.09_PT056H.grib2 2026-04-26 02:56 832K
20260426T00Z_MSC_RDPS_SpecificHumidity_IsbL-0970_RLatLon0.09_PT056H.grib2 2026-04-26 02:56 823K
20260426T00Z_MSC_RDPS_SpecificHumidity_IsbL-0985_RLatLon0.09_PT056H.grib2 2026-04-26 02:56 676K
20260426T00Z_MSC_RDPS_SpecificHumidity_IsbL-1000_RLatLon0.09_PT056H.grib2 2026-04-26 02:56 671K
20260426T00Z_MSC_RDPS_SpecificHumidity_IsbL-1015_RLatLon0.09_PT056H.grib2 2026-04-26 02:56 664K
20260426T00Z_MSC_RDPS_SpecificHumidity_Sfc_RLatLon0.09_PT056H.grib2 2026-04-26 02:56 291K
20260426T00Z_MSC_RDPS_StormRelativeHelicity_EtaL-10000_RLatLon0.09_PT056H.grib2 2026-04-26 02:56 1.1M
20260426T00Z_MSC_RDPS_StormSeverityIndex_EtaL-10000_RLatLon0.09_PT056H.grib2 2026-04-26 02:56 1.2M
20260426T00Z_MSC_RDPS_Thickness_IsbL-0850to0700_RLatLon0.09_PT056H.grib2 2026-04-26 02:56 176K
20260426T00Z_MSC_RDPS_Thickness_IsbL-1000to0500_RLatLon0.09_PT056H.grib2 2026-04-26 02:56 199K
20260426T00Z_MSC_RDPS_Thickness_IsbL-1000to0850_RLatLon0.09_PT056H.grib2 2026-04-26 02:56 183K
20260426T00Z_MSC_RDPS_TotalCloudCover_Sfc_RLatLon0.09_PT056H.grib2 2026-04-26 02:56 659K
20260426T00Z_MSC_RDPS_TotalTotalsIndex_Sfc_RLatLon0.09_PT056H.grib2 2026-04-26 02:56 2.4M
20260426T00Z_MSC_RDPS_UVIndex-ClearSky_Sfc_RLatLon0.09_PT056H.grib2 2026-04-26 02:56 87K
20260426T00Z_MSC_RDPS_UVIndex_Sfc_RLatLon0.09_PT056H.grib2 2026-04-26 02:56 156K
20260426T00Z_MSC_RDPS_UpwardLongwaveRadiationFlux_NTAtm_RLatLon0.09_PT056H.grib2 2026-04-26 02:56 487K
20260426T00Z_MSC_RDPS_UpwardShortwaveRadiationFlux_NTAtm_RLatLon0.09_PT056H.grib2 2026-04-26 02:56 136K
20260426T00Z_MSC_RDPS_VerticalVelocity_IsbL-0250_RLatLon0.09_PT056H.grib2 2026-04-26 02:56 556K
20260426T00Z_MSC_RDPS_VerticalVelocity_IsbL-0500_RLatLon0.09_PT056H.grib2 2026-04-26 02:56 544K
20260426T00Z_MSC_RDPS_VerticalVelocity_IsbL-0700_RLatLon0.09_PT056H.grib2 2026-04-26 02:56 593K
20260426T00Z_MSC_RDPS_VerticalVelocity_IsbL-0850_RLatLon0.09_PT056H.grib2 2026-04-26 02:56 692K
20260426T00Z_MSC_RDPS_VerticalWindShear_EtaL-6500_RLatLon0.09_PT056H.grib2 2026-04-26 02:56 1.2M
20260426T00Z_MSC_RDPS_WindChill_Sfc_RLatLon0.09_PT056H.grib2 2026-04-26 02:56 1.1M
20260426T00Z_MSC_RDPS_WindDir_AGL-10m_RLatLon0.09_PT056H.grib2 2026-04-26 02:56 1.0M
20260426T00Z_MSC_RDPS_WindDir_AGL-120m_RLatLon0.09_PT056H.grib2 2026-04-26 02:56 605K
20260426T00Z_MSC_RDPS_WindDir_AGL-40m_RLatLon0.09_PT056H.grib2 2026-04-26 02:56 640K
20260426T00Z_MSC_RDPS_WindDir_AGL-80m_RLatLon0.09_PT056H.grib2 2026-04-26 02:56 619K
20260426T00Z_MSC_RDPS_WindDir_IsbL-0001_RLatLon0.09_PT056H.grib2 2026-04-26 02:56 313K
20260426T00Z_MSC_RDPS_WindDir_IsbL-0005_RLatLon0.09_PT056H.grib2 2026-04-26 02:56 364K
20260426T00Z_MSC_RDPS_WindDir_IsbL-0010_RLatLon0.09_PT056H.grib2 2026-04-26 02:56 385K
20260426T00Z_MSC_RDPS_WindDir_IsbL-0020_RLatLon0.09_PT056H.grib2 2026-04-26 02:56 411K
20260426T00Z_MSC_RDPS_WindDir_IsbL-0030_RLatLon0.09_PT056H.grib2 2026-04-26 02:56 422K
20260426T00Z_MSC_RDPS_WindDir_IsbL-0050_RLatLon0.09_PT056H.grib2 2026-04-26 02:56 420K
20260426T00Z_MSC_RDPS_WindDir_IsbL-0100_RLatLon0.09_PT056H.grib2 2026-04-26 02:56 417K
20260426T00Z_MSC_RDPS_WindDir_IsbL-0150_RLatLon0.09_PT056H.grib2 2026-04-26 02:56 413K
20260426T00Z_MSC_RDPS_WindDir_IsbL-0175_RLatLon0.09_PT056H.grib2 2026-04-26 02:56 429K
20260426T00Z_MSC_RDPS_WindDir_IsbL-0200_RLatLon0.09_PT056H.grib2 2026-04-26 02:56 437K
20260426T00Z_MSC_RDPS_WindDir_IsbL-0225_RLatLon0.09_PT056H.grib2 2026-04-26 02:56 442K
20260426T00Z_MSC_RDPS_WindDir_IsbL-0250_RLatLon0.09_PT056H.grib2 2026-04-26 02:56 444K
20260426T00Z_MSC_RDPS_WindDir_IsbL-0275_RLatLon0.09_PT056H.grib2 2026-04-26 02:56 467K
20260426T00Z_MSC_RDPS_WindDir_IsbL-0300_RLatLon0.09_PT056H.grib2 2026-04-26 02:56 467K
20260426T00Z_MSC_RDPS_WindDir_IsbL-0350_RLatLon0.09_PT056H.grib2 2026-04-26 02:56 490K
20260426T00Z_MSC_RDPS_WindDir_IsbL-0400_RLatLon0.09_PT056H.grib2 2026-04-26 02:56 516K
20260426T00Z_MSC_RDPS_WindDir_IsbL-0450_RLatLon0.09_PT056H.grib2 2026-04-26 02:56 524K
20260426T00Z_MSC_RDPS_WindDir_IsbL-0500_RLatLon0.09_PT056H.grib2 2026-04-26 02:56 539K
20260426T00Z_MSC_RDPS_WindDir_IsbL-0550_RLatLon0.09_PT056H.grib2 2026-04-26 02:56 554K
20260426T00Z_MSC_RDPS_WindDir_IsbL-0600_RLatLon0.09_PT056H.grib2 2026-04-26 02:56 577K
20260426T00Z_MSC_RDPS_WindDir_IsbL-0650_RLatLon0.09_PT056H.grib2 2026-04-26 02:56 618K
20260426T00Z_MSC_RDPS_WindDir_IsbL-0700_RLatLon0.09_PT056H.grib2 2026-04-26 02:56 659K
20260426T00Z_MSC_RDPS_WindDir_IsbL-0750_RLatLon0.09_PT056H.grib2 2026-04-26 02:56 705K
20260426T00Z_MSC_RDPS_WindDir_IsbL-0800_RLatLon0.09_PT056H.grib2 2026-04-26 02:56 771K
20260426T00Z_MSC_RDPS_WindDir_IsbL-0850_RLatLon0.09_PT056H.grib2 2026-04-26 02:56 852K
20260426T00Z_MSC_RDPS_WindDir_IsbL-0875_RLatLon0.09_PT056H.grib2 2026-04-26 02:56 881K
20260426T00Z_MSC_RDPS_WindDir_IsbL-0900_RLatLon0.09_PT056H.grib2 2026-04-26 02:56 901K
20260426T00Z_MSC_RDPS_WindDir_IsbL-0925_RLatLon0.09_PT056H.grib2 2026-04-26 02:56 913K
20260426T00Z_MSC_RDPS_WindDir_IsbL-0950_RLatLon0.09_PT056H.grib2 2026-04-26 02:56 915K
20260426T00Z_MSC_RDPS_WindDir_IsbL-0970_RLatLon0.09_PT056H.grib2 2026-04-26 02:56 921K
20260426T00Z_MSC_RDPS_WindDir_IsbL-0985_RLatLon0.09_PT056H.grib2 2026-04-26 02:56 930K
20260426T00Z_MSC_RDPS_WindDir_IsbL-1000_RLatLon0.09_PT056H.grib2 2026-04-26 02:56 947K
20260426T00Z_MSC_RDPS_WindDir_IsbL-1015_RLatLon0.09_PT056H.grib2 2026-04-26 02:56 967K
20260426T00Z_MSC_RDPS_WindGust-Max_AGL-10m_RLatLon0.09_PT056H.grib2 2026-04-26 02:56 1.0M
20260426T00Z_MSC_RDPS_WindGust-Min_AGL-10m_RLatLon0.09_PT056H.grib2 2026-04-26 02:56 1.0M
20260426T00Z_MSC_RDPS_WindGust_AGL-10m_RLatLon0.09_PT056H.grib2 2026-04-26 02:56 1.0M
20260426T00Z_MSC_RDPS_WindSpeed_AGL-10m_RLatLon0.09_PT056H.grib2 2026-04-26 02:56 850K
20260426T00Z_MSC_RDPS_WindSpeed_AGL-120m_RLatLon0.09_PT056H.grib2 2026-04-26 02:56 555K
20260426T00Z_MSC_RDPS_WindSpeed_AGL-40m_RLatLon0.09_PT056H.grib2 2026-04-26 02:56 550K
20260426T00Z_MSC_RDPS_WindSpeed_AGL-80m_RLatLon0.09_PT056H.grib2 2026-04-26 02:56 557K
20260426T00Z_MSC_RDPS_WindSpeed_IsbL-0001_RLatLon0.09_PT056H.grib2 2026-04-26 02:56 253K
20260426T00Z_MSC_RDPS_WindSpeed_IsbL-0005_RLatLon0.09_PT056H.grib2 2026-04-26 02:56 302K
20260426T00Z_MSC_RDPS_WindSpeed_IsbL-0010_RLatLon0.09_PT056H.grib2 2026-04-26 02:56 315K
20260426T00Z_MSC_RDPS_WindSpeed_IsbL-0020_RLatLon0.09_PT056H.grib2 2026-04-26 02:56 331K
20260426T00Z_MSC_RDPS_WindSpeed_IsbL-0030_RLatLon0.09_PT056H.grib2 2026-04-26 02:56 324K
20260426T00Z_MSC_RDPS_WindSpeed_IsbL-0050_RLatLon0.09_PT056H.grib2 2026-04-26 02:56 358K
20260426T00Z_MSC_RDPS_WindSpeed_IsbL-0100_RLatLon0.09_PT056H.grib2 2026-04-26 02:56 447K
20260426T00Z_MSC_RDPS_WindSpeed_IsbL-0150_RLatLon0.09_PT056H.grib2 2026-04-26 02:56 386K
20260426T00Z_MSC_RDPS_WindSpeed_IsbL-0175_RLatLon0.09_PT056H.grib2 2026-04-26 02:56 414K
20260426T00Z_MSC_RDPS_WindSpeed_IsbL-0200_RLatLon0.09_PT056H.grib2 2026-04-26 02:56 449K
20260426T00Z_MSC_RDPS_WindSpeed_IsbL-0225_RLatLon0.09_PT056H.grib2 2026-04-26 02:56 452K
20260426T00Z_MSC_RDPS_WindSpeed_IsbL-0250_RLatLon0.09_PT056H.grib2 2026-04-26 02:56 455K
20260426T00Z_MSC_RDPS_WindSpeed_IsbL-0275_RLatLon0.09_PT056H.grib2 2026-04-26 02:56 474K
20260426T00Z_MSC_RDPS_WindSpeed_IsbL-0300_RLatLon0.09_PT056H.grib2 2026-04-26 02:56 472K
20260426T00Z_MSC_RDPS_WindSpeed_IsbL-0350_RLatLon0.09_PT056H.grib2 2026-04-26 02:56 483K
20260426T00Z_MSC_RDPS_WindSpeed_IsbL-0400_RLatLon0.09_PT056H.grib2 2026-04-26 02:56 468K
20260426T00Z_MSC_RDPS_WindSpeed_IsbL-0450_RLatLon0.09_PT056H.grib2 2026-04-26 02:56 466K
20260426T00Z_MSC_RDPS_WindSpeed_IsbL-0500_RLatLon0.09_PT056H.grib2 2026-04-26 02:56 579K
20260426T00Z_MSC_RDPS_WindSpeed_IsbL-0550_RLatLon0.09_PT056H.grib2 2026-04-26 02:56 580K
20260426T00Z_MSC_RDPS_WindSpeed_IsbL-0600_RLatLon0.09_PT056H.grib2 2026-04-26 02:56 589K
20260426T00Z_MSC_RDPS_WindSpeed_IsbL-0650_RLatLon0.09_PT056H.grib2 2026-04-26 02:56 652K
20260426T00Z_MSC_RDPS_WindSpeed_IsbL-0700_RLatLon0.09_PT056H.grib2 2026-04-26 02:56 673K
20260426T00Z_MSC_RDPS_WindSpeed_IsbL-0750_RLatLon0.09_PT056H.grib2 2026-04-26 02:56 701K
20260426T00Z_MSC_RDPS_WindSpeed_IsbL-0800_RLatLon0.09_PT056H.grib2 2026-04-26 02:56 749K
20260426T00Z_MSC_RDPS_WindSpeed_IsbL-0850_RLatLon0.09_PT056H.grib2 2026-04-26 02:56 811K
20260426T00Z_MSC_RDPS_WindSpeed_IsbL-0875_RLatLon0.09_PT056H.grib2 2026-04-26 02:56 835K
20260426T00Z_MSC_RDPS_WindSpeed_IsbL-0900_RLatLon0.09_PT056H.grib2 2026-04-26 02:56 851K
20260426T00Z_MSC_RDPS_WindSpeed_IsbL-0925_RLatLon0.09_PT056H.grib2 2026-04-26 02:56 864K
20260426T00Z_MSC_RDPS_WindSpeed_IsbL-0950_RLatLon0.09_PT056H.grib2 2026-04-26 02:56 866K
20260426T00Z_MSC_RDPS_WindSpeed_IsbL-0970_RLatLon0.09_PT056H.grib2 2026-04-26 02:56 866K
20260426T00Z_MSC_RDPS_WindSpeed_IsbL-0985_RLatLon0.09_PT056H.grib2 2026-04-26 02:56 863K
20260426T00Z_MSC_RDPS_WindSpeed_IsbL-1000_RLatLon0.09_PT056H.grib2 2026-04-26 02:56 855K
20260426T00Z_MSC_RDPS_WindSpeed_IsbL-1015_RLatLon0.09_PT056H.grib2 2026-04-26 02:56 848K
20260426T00Z_MSC_RDPS_WindU_AGL-10m_RLatLon0.09_PT056H.grib2 2026-04-26 02:56 436K
20260426T00Z_MSC_RDPS_WindU_AGL-120m_RLatLon0.09_PT056H.grib2 2026-04-26 02:56 421K
20260426T00Z_MSC_RDPS_WindU_AGL-40m_RLatLon0.09_PT056H.grib2 2026-04-26 02:56 545K
20260426T00Z_MSC_RDPS_WindU_AGL-80m_RLatLon0.09_PT056H.grib2 2026-04-26 02:56 424K
20260426T00Z_MSC_RDPS_WindU_IsbL-0001_RLatLon0.09_PT056H.grib2 2026-04-26 02:56 294K
20260426T00Z_MSC_RDPS_WindU_IsbL-0005_RLatLon0.09_PT056H.grib2 2026-04-26 02:56 337K
20260426T00Z_MSC_RDPS_WindU_IsbL-0010_RLatLon0.09_PT056H.grib2 2026-04-26 02:56 304K
20260426T00Z_MSC_RDPS_WindU_IsbL-0020_RLatLon0.09_PT056H.grib2 2026-04-26 02:56 359K
20260426T00Z_MSC_RDPS_WindU_IsbL-0030_RLatLon0.09_PT056H.grib2 2026-04-26 02:56 356K
20260426T00Z_MSC_RDPS_WindU_IsbL-0050_RLatLon0.09_PT056H.grib2 2026-04-26 02:56 386K
20260426T00Z_MSC_RDPS_WindU_IsbL-0100_RLatLon0.09_PT056H.grib2 2026-04-26 02:56 343K
20260426T00Z_MSC_RDPS_WindU_IsbL-0150_RLatLon0.09_PT056H.grib2 2026-04-26 02:56 403K
20260426T00Z_MSC_RDPS_WindU_IsbL-0175_RLatLon0.09_PT056H.grib2 2026-04-26 02:56 428K
20260426T00Z_MSC_RDPS_WindU_IsbL-0200_RLatLon0.09_PT056H.grib2 2026-04-26 02:56 442K
20260426T00Z_MSC_RDPS_WindU_IsbL-0225_RLatLon0.09_PT056H.grib2 2026-04-26 02:56 345K
20260426T00Z_MSC_RDPS_WindU_IsbL-0250_RLatLon0.09_PT056H.grib2 2026-04-26 02:56 346K
20260426T00Z_MSC_RDPS_WindU_IsbL-0275_RLatLon0.09_PT056H.grib2 2026-04-26 02:56 361K
20260426T00Z_MSC_RDPS_WindU_IsbL-0300_RLatLon0.09_PT056H.grib2 2026-04-26 02:56 359K
20260426T00Z_MSC_RDPS_WindU_IsbL-0350_RLatLon0.09_PT056H.grib2 2026-04-26 02:56 470K
20260426T00Z_MSC_RDPS_WindU_IsbL-0400_RLatLon0.09_PT056H.grib2 2026-04-26 02:56 472K
20260426T00Z_MSC_RDPS_WindU_IsbL-0450_RLatLon0.09_PT056H.grib2 2026-04-26 02:56 470K
20260426T00Z_MSC_RDPS_WindU_IsbL-0500_RLatLon0.09_PT056H.grib2 2026-04-26 02:56 467K
20260426T00Z_MSC_RDPS_WindU_IsbL-0550_RLatLon0.09_PT056H.grib2 2026-04-26 02:56 468K
20260426T00Z_MSC_RDPS_WindU_IsbL-0600_RLatLon0.09_PT056H.grib2 2026-04-26 02:56 459K
20260426T00Z_MSC_RDPS_WindU_IsbL-0650_RLatLon0.09_PT056H.grib2 2026-04-26 02:56 478K
20260426T00Z_MSC_RDPS_WindU_IsbL-0700_RLatLon0.09_PT056H.grib2 2026-04-26 02:56 497K
20260426T00Z_MSC_RDPS_WindU_IsbL-0750_RLatLon0.09_PT056H.grib2 2026-04-26 02:56 523K
20260426T00Z_MSC_RDPS_WindU_IsbL-0800_RLatLon0.09_PT056H.grib2 2026-04-26 02:56 566K
20260426T00Z_MSC_RDPS_WindU_IsbL-0850_RLatLon0.09_PT056H.grib2 2026-04-26 02:56 621K
20260426T00Z_MSC_RDPS_WindU_IsbL-0875_RLatLon0.09_PT056H.grib2 2026-04-26 02:56 641K
20260426T00Z_MSC_RDPS_WindU_IsbL-0900_RLatLon0.09_PT056H.grib2 2026-04-26 02:56 651K
20260426T00Z_MSC_RDPS_WindU_IsbL-0925_RLatLon0.09_PT056H.grib2 2026-04-26 02:56 660K
20260426T00Z_MSC_RDPS_WindU_IsbL-0950_RLatLon0.09_PT056H.grib2 2026-04-26 02:56 658K
20260426T00Z_MSC_RDPS_WindU_IsbL-0970_RLatLon0.09_PT056H.grib2 2026-04-26 02:56 656K
20260426T00Z_MSC_RDPS_WindU_IsbL-0985_RLatLon0.09_PT056H.grib2 2026-04-26 02:56 654K
20260426T00Z_MSC_RDPS_WindU_IsbL-1000_RLatLon0.09_PT056H.grib2 2026-04-26 02:56 791K
20260426T00Z_MSC_RDPS_WindU_IsbL-1015_RLatLon0.09_PT056H.grib2 2026-04-26 02:56 787K
20260426T00Z_MSC_RDPS_WindV_AGL-10m_RLatLon0.09_PT056H.grib2 2026-04-26 02:56 434K
20260426T00Z_MSC_RDPS_WindV_AGL-120m_RLatLon0.09_PT056H.grib2 2026-04-26 02:56 537K
20260426T00Z_MSC_RDPS_WindV_AGL-40m_RLatLon0.09_PT056H.grib2 2026-04-26 02:56 542K
20260426T00Z_MSC_RDPS_WindV_AGL-80m_RLatLon0.09_PT056H.grib2 2026-04-26 02:56 540K
20260426T00Z_MSC_RDPS_WindV_IsbL-0001_RLatLon0.09_PT056H.grib2 2026-04-26 02:56 246K
20260426T00Z_MSC_RDPS_WindV_IsbL-0005_RLatLon0.09_PT056H.grib2 2026-04-26 02:56 334K
20260426T00Z_MSC_RDPS_WindV_IsbL-0010_RLatLon0.09_PT056H.grib2 2026-04-26 02:56 303K
20260426T00Z_MSC_RDPS_WindV_IsbL-0020_RLatLon0.09_PT056H.grib2 2026-04-26 02:56 322K
20260426T00Z_MSC_RDPS_WindV_IsbL-0030_RLatLon0.09_PT056H.grib2 2026-04-26 02:56 320K
20260426T00Z_MSC_RDPS_WindV_IsbL-0050_RLatLon0.09_PT056H.grib2 2026-04-26 02:56 351K
20260426T00Z_MSC_RDPS_WindV_IsbL-0100_RLatLon0.09_PT056H.grib2 2026-04-26 02:56 339K
20260426T00Z_MSC_RDPS_WindV_IsbL-0150_RLatLon0.09_PT056H.grib2 2026-04-26 02:56 400K
20260426T00Z_MSC_RDPS_WindV_IsbL-0175_RLatLon0.09_PT056H.grib2 2026-04-26 02:56 428K
20260426T00Z_MSC_RDPS_WindV_IsbL-0200_RLatLon0.09_PT056H.grib2 2026-04-26 02:56 343K
20260426T00Z_MSC_RDPS_WindV_IsbL-0225_RLatLon0.09_PT056H.grib2 2026-04-26 02:56 344K
20260426T00Z_MSC_RDPS_WindV_IsbL-0250_RLatLon0.09_PT056H.grib2 2026-04-26 02:56 370K
20260426T00Z_MSC_RDPS_WindV_IsbL-0275_RLatLon0.09_PT056H.grib2 2026-04-26 02:56 383K
20260426T00Z_MSC_RDPS_WindV_IsbL-0300_RLatLon0.09_PT056H.grib2 2026-04-26 02:56 381K
20260426T00Z_MSC_RDPS_WindV_IsbL-0350_RLatLon0.09_PT056H.grib2 2026-04-26 02:56 364K
20260426T00Z_MSC_RDPS_WindV_IsbL-0400_RLatLon0.09_PT056H.grib2 2026-04-26 02:56 365K
20260426T00Z_MSC_RDPS_WindV_IsbL-0450_RLatLon0.09_PT056H.grib2 2026-04-26 02:56 467K
20260426T00Z_MSC_RDPS_WindV_IsbL-0500_RLatLon0.09_PT056H.grib2 2026-04-26 02:56 465K
20260426T00Z_MSC_RDPS_WindV_IsbL-0550_RLatLon0.09_PT056H.grib2 2026-04-26 02:56 465K
20260426T00Z_MSC_RDPS_WindV_IsbL-0600_RLatLon0.09_PT056H.grib2 2026-04-26 02:56 473K
20260426T00Z_MSC_RDPS_WindV_IsbL-0650_RLatLon0.09_PT056H.grib2 2026-04-26 02:56 492K
20260426T00Z_MSC_RDPS_WindV_IsbL-0700_RLatLon0.09_PT056H.grib2 2026-04-26 02:56 510K
20260426T00Z_MSC_RDPS_WindV_IsbL-0750_RLatLon0.09_PT056H.grib2 2026-04-26 02:56 519K
20260426T00Z_MSC_RDPS_WindV_IsbL-0800_RLatLon0.09_PT056H.grib2 2026-04-26 02:56 561K
20260426T00Z_MSC_RDPS_WindV_IsbL-0850_RLatLon0.09_PT056H.grib2 2026-04-26 02:56 616K
20260426T00Z_MSC_RDPS_WindV_IsbL-0875_RLatLon0.09_PT056H.grib2 2026-04-26 02:56 637K
20260426T00Z_MSC_RDPS_WindV_IsbL-0900_RLatLon0.09_PT056H.grib2 2026-04-26 02:56 650K
20260426T00Z_MSC_RDPS_WindV_IsbL-0925_RLatLon0.09_PT056H.grib2 2026-04-26 02:56 659K
20260426T00Z_MSC_RDPS_WindV_IsbL-0950_RLatLon0.09_PT056H.grib2 2026-04-26 02:56 659K
20260426T00Z_MSC_RDPS_WindV_IsbL-0970_RLatLon0.09_PT056H.grib2 2026-04-26 02:56 798K
20260426T00Z_MSC_RDPS_WindV_IsbL-0985_RLatLon0.09_PT056H.grib2 2026-04-26 02:56 793K
20260426T00Z_MSC_RDPS_WindV_IsbL-1000_RLatLon0.09_PT056H.grib2 2026-04-26 02:56 789K
20260426T00Z_MSC_RDPS_WindV_IsbL-1015_RLatLon0.09_PT056H.grib2 2026-04-26 02:56 829K